AGROMETEOROLOŠKI PORTAL

vinorodna pokrajina

Temelj dobrega kmetovanja

Pregled podatkov za lokacijo Šlovrenc, meteorološka postaja 859088

Pregled senzorjev na lokaciji

ID Ime Zadnja
vrednost
Datum in čas
meritve
(lokalni čas)
Tip
senzorja
4325 Omočenost lista (1,5 m) (U) 0 U 28.1.2023 07:30 A730WET
5084 Padavine (mm) 0 mm 28.1.2023 07:30 Generic 0.2 mm
3974 Relativna zračna vlaga (2 m) (%RH) 91 %RH 28.1.2023 07:30 50YA
3973 Temperatura (2 m) (°C) -4 °C 28.1.2023 07:30 50YA

Pregled podatkov zadnjih 24 ur

Zap.
št.
Datum in čas
(lokalni čas)
Šlovrenc
Omočenost
lista
(1,5
m)
Padavine Relativna
zračna
vlaga
(2
m)
Temperatura
(2
m)
1 28.1.2023 07:30 0 0 90,8 -4
2 28.1.2023 07:00 0 0 89 -3,8
3 28.1.2023 06:30 0 0 87,5 -3,4
4 28.1.2023 06:00 0 0 88,5 -3,3
5 28.1.2023 05:30 0 0 87,3 -3,2
6 28.1.2023 05:00 0 0 87,5 -3,1
7 28.1.2023 04:30 0 0 86,1 -3
8 28.1.2023 04:00 0 0 81,9 -2,2
9 28.1.2023 03:30 0 0 77,9 -1,5
10 28.1.2023 03:00 0 0 75,4 -0,8
11 28.1.2023 02:30 0 0 71,4 0
12 28.1.2023 02:00 0 0 68,9 0,7
13 28.1.2023 01:30 0 0 64,4 1,6
14 28.1.2023 01:00 0 0 59,1 2,6
15 28.1.2023 00:30 0 0 56,9 3,2
16 28.1.2023 00:00 0 0 56,2 3,4
17 27.1.2023 23:30 0 0 55,5 3,6
18 27.1.2023 23:00 0 0 54,9 3,8
19 27.1.2023 22:30 0 0 54,8 3,8
20 27.1.2023 22:00 0 0 55,1 3,8
21 27.1.2023 21:30 0 0 54,6 3,9
22 27.1.2023 21:00 0 0 53,8 4
23 27.1.2023 20:30 0 0 52,6 4,1
24 27.1.2023 20:00 0 0 51,6 4,2
25 27.1.2023 19:30 0 0 50,1 4,4
26 27.1.2023 19:00 0 0 49,2 4,5
27 27.1.2023 18:30 0 0 48,6 4,5
28 27.1.2023 18:00 0 0 48,1 4,6
29 27.1.2023 17:30 0 0 47,3 4,7
30 27.1.2023 17:00 0 0 45,8 5,1
31 27.1.2023 16:30 0 0 44,2 5,5
32 27.1.2023 16:00 0 0 42,8 6,2
33 27.1.2023 15:30 0 0 41,5 6,6
34 27.1.2023 15:00 0 0 40,3 7,1
35 27.1.2023 14:30 0 0 40 7,2
36 27.1.2023 14:00 0 0 40,6 7,4
37 27.1.2023 13:30 0 0 39,9 7
38 27.1.2023 13:00 0 0 39,9 6,9
39 27.1.2023 12:30 0 0 39,6 7,3
40 27.1.2023 12:00 0 0 41 6,2
41 27.1.2023 11:30 0 0 42,4 6,2
42 27.1.2023 11:00 0 0 41,6 6,1
43 27.1.2023 10:30 0 0 39,8 6
44 27.1.2023 10:00 0 0 40,2 5,4
45 27.1.2023 09:30 0 0 42,4 4,6
46 27.1.2023 09:00 0 0 44,8 3,8
47 27.1.2023 08:30 0 0 47,9 3,1
48 27.1.2023 08:00 0 0 50,5 2,9